TimeIST,TemperatureF,Dew PointF,Humidity,Sea Level PressureIn,VisibilityMPH,Wind Direction,Wind SpeedMPH,Gust SpeedMPH,PrecipitationIn,Events,Conditions,WindDirDegrees,DateUTC
2:30 AM,75,71,85,29.60,2,West,6.9,,,,Haze,270,2013-07-20 21:00:00
5:30 AM,74,71,86,29.60,2,West,9.2,,,,Haze,270,2013-07-21 00:00:00
6:10 AM,73.4,66.2,78,29.71,3.1,West,13.8,-,N/A,,Haze,270,2013-07-21 00:40:00
7:10 AM,73.4,66.2,78,29.71,3.1,West,10.4,-,N/A,,Haze,270,2013-07-21 01:40:00
8:10 AM,75.2,66.2,73,29.71,3.1,West,11.5,-,N/A,,Haze,270,2013-07-21 02:40:00
8:30 AM,75,71,84,29.63,2,WSW,3.5,,,,Haze,250,2013-07-21 03:00:00
9:10 AM,77.0,66.2,69,29.74,3.1,West,13.8,-,N/A,,Haze,270,2013-07-21 03:40:00
10:10 AM,77.0,66.2,69,29.74,3.1,West,9.2,-,N/A,,Haze,270,2013-07-21 04:40:00
11:10 AM,80.6,68.0,65,29.71,3.7,West,13.8,-,N/A,,Mostly Cloudy,270,2013-07-21 05:40:00
11:30 AM,81,75,77,29.59,6,West,6.9,,,,Haze,270,2013-07-21 06:00:00
12:10 PM,82.4,69.8,66,29.71,3.7,WNW,13.8,-,N/A,,Mostly Cloudy,290,2013-07-21 06:40:00
1:10 PM,82.4,68.0,62,29.68,3.7,West,11.5,-,N/A,,Mostly Cloudy,270,2013-07-21 07:40:00
2:30 PM,86,71,51,29.51,6,West,5.8,,,,Mostly Cloudy,270,2013-07-21 09:00:00
3:10 PM,-9999,-9999,N/A,29.65,3.7,WNW,12.7,-,N/A,,Mostly Cloudy,290,2013-07-21 09:40:00
4:10 PM,78.8,69.8,74,29.62,3.7,West,11.5,-,N/A,,Mostly Cloudy,280,2013-07-21 10:40:00
5:10 PM,77.0,71.6,83,29.62,3.7,West,9.2,-,N/A,,Mostly Cloudy,270,2013-07-21 11:40:00
5:30 PM,82,75,73,29.49,2,West,4.6,,,,Haze,270,2013-07-21 12:00:00
7:10 PM,77.0,71.6,83,29.65,3.1,West,9.2,-,N/A,,Haze,260,2013-07-21 13:40:00
8:10 PM,77.0,71.6,83,29.68,-9999.0,North,-9999.0,-,N/A,Rain,Light Rain,0,2013-07-21 14:40:00
8:30 PM,77,75,90,29.59,2,West,4.6,,,Rain,Light Rain,270,2013-07-21 15:00:00
9:10 PM,77.0,73.4,89,29.71,2.5,WNW,9.2,-,N/A,Rain,Rain,290,2013-07-21 15:40:00
11:30 PM,75,73,92,29.60,2,West,3.5,,,Rain,Light Rain,270,2013-07-21 18:00:00